EW3497 Weather Reports


Display with metric or nautical units.
time (UTC)temp
F
wind
direction
speed
MPH
gust
MPH
rain 1hr
in
rain 24hr
in
rain mn
in
humidity
%
barometer
mb
20260505195407 75 351 6.0 12.0 0.00 0.00 0.00 45 1010.4
20260505194505 74 345 7.0 14.0 0.00 0.00 0.00 46 1010.4
20260505193625 74 359 7.0 14.0 0.00 0.00 0.00 46 1010.5
20260505192705 74 3 6.0 15.0 0.00 0.00 0.00 47 1010.5
20260505191806 74 352 7.0 12.0 0.00 0.00 0.00 48 1010.6
20260505190926 73 360 8.0 16.0 0.00 0.00 0.00 47 1010.7
20260505190026 74 1 5.0 16.0 0.00 0.00 0.00 47 1010.7
20260505185405 73 9 6.0 16.0 0.00 0.00 0.00 48 1010.7
20260505184505 72 348 7.0 15.0 0.00 0.00 0.00 49 1010.8
20260505183625 72 343 7.0 15.0 0.00 0.00 0.00 49 1010.8
20260505182705 71 354 9.0 16.0 0.00 0.00 0.00 50 1010.9
20260505181805 71 344 8.0 15.0 0.00 0.00 0.00 51 1011.0
20260505180926 71 334 7.0 15.0 0.00 0.00 0.00 52 1011.0
20260505180026 71 348 7.0 14.0 0.00 0.00 0.00 52 1011.0
20260505175405 71 355 7.0 15.0 0.00 0.00 0.00 52 1010.9
20260505174505 70 332 6.0 12.0 0.00 0.00 0.00 53 1011.0
20260505173604 70 356 7.0 16.0 0.00 0.00 0.00 54 1011.0
20260505172726 70 339 5.0 11.0 0.00 0.00 0.00 55 1011.0
20260505171805 69 336 5.0 11.0 0.00 0.00 0.00 56 1011.0
20260505170905 69 319 6.0 12.0 0.00 0.00 0.00 56 1010.9
20260505170026 68 305 5.0 11.0 0.00 0.00 0.00 58 1011.0
20260505165404 68 292 5.0 11.0 0.00 0.00 0.00 59 1011.0
20260505164505 68 317 5.0 11.0 0.00 0.00 0.00 58 1011.0
20260505163604 67 289 6.0 11.0 0.00 0.00 0.00 59 1011.0
20260505162704 66 277 5.0 15.0 0.00 0.00 0.00 59 1011.0
20260505161805 66 299 7.0 16.0 0.00 0.00 0.00 61 1011.0
20260505160905 66 289 6.0 14.0 0.00 0.00 0.00 60 1011.0
20260505152726 64 319 7.0 20.0 0.00 0.00 0.00 63 1010.8
20260505151825 64 325 8.0 16.0 0.00 0.00 0.00 64 1010.7
20260505150905 64 331 9.0 16.0 0.00 0.00 0.00 64 1010.7
20260505124505 62 343 7.0 12.0 0.00 0.00 0.00 68 1009.3
20260505123604 62 341 6.0 12.0 0.00 0.00 0.00 68 1009.2
20260505122704 63 349 5.0 11.0 0.00 0.00 0.00 68 1009.1
20260505121804 63 343 4.0 10.0 0.00 0.00 0.00 67 1009.0
20260505120904 63 333 5.0 11.0 0.00 0.00 0.00 67 1009.0
20260505120005 63 334 6.0 12.0 0.00 0.00 0.00 67 1008.9
20260505115404 64 338 6.0 15.0 0.00 0.00 0.00 66 1008.9
20260505114505 64 323 5.0 12.0 0.00 0.00 0.00 66 1008.9
20260505113604 64 324 6.0 15.0 0.00 0.00 0.00 66 1008.8
20260505112704 64 331 5.0 14.0 0.00 0.00 0.00 66 1008.8
20260505111804 64 340 4.0 11.0 0.00 0.00 0.00 67 1008.7
20260505110904 64 349 4.0 11.0 0.00 0.00 0.00 67 1008.6
20260505101804 65 356 4.0 11.0 0.00 0.00 0.00 65 1008.1
20260505100904 65 346 4.0 11.0 0.00 0.00 0.00 65 1008.2
20260505100005 66 342 5.0 11.0 0.00 0.00 0.00 64 1008.0
20260505095405 66 330 5.0 14.0 0.00 0.00 0.00 64 1008.1
20260505094504 66 313 6.0 14.0 0.00 0.00 0.00 64 1008.0
20260505093604 66 336 5.0 11.0 0.00 0.00 0.00 64 1008.0
20260505092704 67 333 7.0 16.0 0.00 0.00 0.00 63 1007.9
20260505091805 67 325 7.0 15.0 0.00 0.00 0.00 63 1007.9
20260505090925 67 331 6.0 15.0 0.00 0.00 0.00 63 1007.8
20260505090005 67 327 7.0 14.0 0.00 0.00 0.00 62 1007.7
20260505085425 68 330 7.0 14.0 0.00 0.00 0.00 62 1007.7
20260505084504 68 331 7.0 11.0 0.00 0.00 0.00 61 1007.6
20260505083604 68 329 4.0 9.0 0.00 0.00 0.00 61 1007.6
20260505082704 68 322 2.0 6.0 0.00 0.00 0.00 61 1007.6
20260505081825 69 348 3.0 9.0 0.00 0.00 0.00 60 1007.7
20260505080926 69 316 4.0 11.0 0.00 0.00 0.00 59 1007.6
20260505080004 69 307 4.0 10.0 0.00 0.00 0.00 58 1007.5
20260505075404 70 298 4.0 14.0 0.00 0.00 0.00 58 1007.6
20260505074525 70 313 5.0 14.0 0.00 0.00 0.00 57 1007.5
20260505073604 70 317 5.0 14.0 0.00 0.00 0.00 58 1007.5
20260505072705 70 310 5.0 15.0 0.00 0.00 0.00 57 1007.3
20260505071804 70 296 6.0 20.0 0.00 0.00 0.00 57 1007.3
20260505070904 70 313 4.0 14.0 0.00 0.00 0.00 56 1007.2
20260505070005 71 304 5.0 11.0 0.00 0.00 0.00 56 1007.2
20260505065404 71 317 4.0 10.0 0.00 0.00 0.00 56 1007.2
20260505064504 71 287 5.0 16.0 0.00 0.00 0.00 56 1007.1
20260505063604 71 303 6.0 14.0 0.00 0.00 0.00 55 1007.0
20260505062704 71 320 5.0 14.0 0.00 0.00 0.00 55 1007.0
20260505061804 71 307 5.0 12.0 0.00 0.00 0.00 55 1007.0
20260505060904 71 311 3.0 10.0 0.00 0.00 0.00 55 1006.9
20260505060005 71 311 4.0 12.0 0.00 0.00 0.00 53 1006.9
20260505055405 72 327 4.0 14.0 0.00 0.00 0.00 53 1006.8
20260505054504 72 320 3.0 10.0 0.00 0.00 0.00 52 1006.8
20260505053625 72 311 4.0 12.0 0.00 0.00 0.00 51 1006.8
20260505052704 72 285 6.0 18.0 0.00 0.00 0.00 50 1006.7
20260505051804 73 277 8.0 19.0 0.00 0.00 0.00 50 1006.6
20260505050904 73 284 5.0 15.0 0.00 0.00 0.00 49 1006.5
20260505040904 75 290 8.0 18.0 0.00 0.00 0.00 44 1005.9
20260505040005 75 283 9.0 21.0 0.00 0.00 0.00 44 1005.7
20260505035404 75 282 8.0 20.0 0.00 0.00 0.00 44 1005.6
20260505034504 75 293 8.0 16.0 0.00 0.00 0.00 44 1005.6
20260505033604 75 305 8.0 21.0 0.00 0.00 0.00 44 1005.5
20260505032704 76 305 8.0 16.0 0.00 0.00 0.00 44 1005.4
20260505031804 76 292 7.0 16.0 0.00 0.00 0.00 44 1005.4
20260505030904 76 313 6.0 16.0 0.00 0.00 0.00 44 1005.2
20260505030005 77 286 6.0 15.0 0.00 0.00 0.00 43 1005.1
20260505025404 77 289 5.0 15.0 0.00 0.00 0.00 43 1005.1
20260505024504 78 284 5.0 12.0 0.00 0.00 0.00 42 1004.9
20260505023604 78 276 6.0 18.0 0.00 0.00 0.00 41 1004.9
20260505022704 79 272 3.0 12.0 0.00 0.00 0.00 41 1004.8
20260505021806 80 291 6.0 14.0 0.00 0.00 0.00 42 1004.8
20260505020904 80 313 5.0 16.0 0.00 0.00 0.00 41 1004.8
20260505020004 81 313 4.0 14.0 0.00 0.00 0.00 41 1004.8
20260505015404 80 303 6.0 19.0 0.00 0.00 0.00 41 1004.8
20260505014504 81 306 7.0 16.0 0.00 0.00 0.00 40 1004.8
20260505013604 81 318 8.0 16.0 0.00 0.00 0.00 40 1004.8
20260505012704 82 305 8.0 15.0 0.00 0.00 0.00 39 1004.8
20260505011825 82 308 5.0 14.0 0.00 0.00 0.00 38 1004.8
20260505010925 82 322 7.0 15.0 0.00 0.00 0.00 39 1004.7
20260505010004 82 327 5.0 12.0 0.00 0.00 0.00 39 1004.6
20260505005404 82 325 6.0 18.0 0.00 0.00 0.00 39 1004.6
20260505004504 83 329 7.0 18.0 0.00 0.00 0.00 38 1004.6
20260505003604 83 306 7.0 19.0 0.00 0.00 0.00 37 1004.7
20260505002704 84 317 7.0 15.0 0.00 0.00 0.00 36 1004.6
20260505001804 84 339 7.0 19.0 0.00 0.00 0.00 35 1004.6
20260505000904 84 326 7.0 20.0 0.00 0.00 0.00 36 1004.7
20260505000004 84 324 8.0 20.0 0.00 0.00 0.00 36 1004.7
20260504235404 84 332 8.0 16.0 0.00 0.00 0.00 36 1004.8
20260504234505 84 324 9.0 19.0 0.00 0.00 0.00 36 1004.8
20260504233604 84 310 8.0 20.0 0.00 0.00 0.00 36 1004.7
20260504232725 84 318 9.0 18.0 0.00 0.00 0.00 36 1004.8
20260504231825 84 318 9.0 19.0 0.00 0.00 0.00 37 1004.8
20260504230925 84 328 8.0 20.0 0.00 0.00 0.00 36 1004.8
20260504230025 84 318 7.0 16.0 0.00 0.00 0.00 36 1004.9
20260504225404 85 329 8.0 16.0 0.00 0.00 0.00 35 1005.0
20260504224504 85 333 8.0 19.0 0.00 0.00 0.00 35 1005.1
20260504223604 85 330 7.0 19.0 0.00 0.00 0.00 34 1005.2
20260504222704 85 1 8.0 18.0 0.00 0.00 0.00 34 1005.3
20260504221804 84 2 7.0 16.0 0.00 0.00 0.00 35 1005.4
20260504220904 84 345 8.0 16.0 0.00 0.00 0.00 34 1005.5
20260504220004 85 331 6.0 15.0 0.00 0.00 0.00 35 1005.5
20260504215404 84 336 7.0 15.0 0.00 0.00 0.00 36 1005.6
20260504214505 85 296 5.0 14.0 0.00 0.00 0.00 34 1005.6
20260504213604 84 352 7.0 16.0 0.00 0.00 0.00 35 1005.7
20260504212704 84 325 5.0 15.0 0.00 0.00 0.00 35 1005.9
20260504211804 82 330 4.0 11.0 0.00 0.00 0.00 39 1005.9
20260504210925 82 356 6.0 12.0 0.00 0.00 0.00 39 1006.0
20260504210005 82 352 7.0 14.0 0.00 0.00 0.00 39 1006.1
20260504205404 82 11 6.0 14.0 0.00 0.00 0.00 39 1006.1
20260504204505 82 5 5.0 10.0 0.00 0.00 0.00 39 1006.3
20260504203603 82 2 6.0 12.0 0.00 0.00 0.00 39 1006.4
20260504202704 81 355 5.0 10.0 0.00 0.00 0.00 40 1006.4
20260504201804 81 353 5.0 12.0 0.00 0.00 0.00 39 1006.6
20260504200904 81 2 4.0 10.0 0.00 0.00 0.00 41 1006.7
20260504200025 80 9 5.0 12.0 0.00 0.00 0.00 41 1006.7